Weather History for Ely, MN

Change the Weather History Date:

Thursday, October 17, 2013

  Actual Average Record
Temperature  
Mean Temperature 37 °F -  
Max Temperature 44 °F 48 °F 69 °F (1998)
Min Temperature 30 °F 32 °F 19 °F (2002)
Degree Days  
Heating Degree Days 28    
Moisture  
Dew Point 38 °F    
Average Humidity 93    
Maximum Humidity 100    
Minimum Humidity 87    
Precipitation  
Precipitation 0.00 in - - ()
Sea Level Pressure  
Sea Level Pressure 29.78 in    
Wind  
Wind Speed 1 mph (NNW)    
Max Wind Speed 9 mph    
Max Gust Speed 16 mph    
Visibility 9 miles    
Events Rain    
Averages and records for this station are not official NWS values.
T = Trace of Precipitation, MM = Missing Value Source: NWS Daily Summary

Daily Weather History Graph

Daily Weather History Graph

Search for Another Location

Airport:

Trip Planner

Search our weather history database for the weather conditions in past years. The results will help you decide how hot, cold, wet, or windy it might be!

Date:

Astronomy

Oct. 17, 2013 Rise Set
Actual Time 7:29 AM CDT 6:14 PM CDT
Civil Twilight 6:58 AM CDT 6:45 PM CDT
Nautical Twilight 6:22 AM CDT 7:21 PM CDT
Astronomical Twilight 5:46 AM CDT 7:57 PM CDT
Moon 5:31 PM CDT (10/17) 5:57 AM CDT (10/17)
Length of Visible Light 11h 47m
Length of Day
10h 44m
Waxing Gibbous, 98% of the Moon is Illuminated
Oct 17
Waxing Gibbous
Oct 18
Full
Oct 26
Last Quarter
Nov 3
New
Nov 9
First Quarter

Hourly Weather History & Observations

Time (CDT) Temp. Windchill Dew Point Humidity Pressure Visibility Wind Dir Wind Speed Gust Speed Precip Events Conditions
12:13 AM 30.2 °F - 28.4 °F 93% 29.79 in 10.0 mi Calm Calm - N/A   Clear
12:28 AM 30.2 °F - 28.4 °F 93% 29.79 in 10.0 mi Calm Calm - N/A   Clear
12:53 AM 30.2 °F - 28.4 °F 93% 29.79 in 10.0 mi Calm Calm - N/A   Clear
1:13 AM 30.2 °F - 28.4 °F 93% 29.78 in 10.0 mi Calm Calm - N/A   Clear
1:32 AM 30.2 °F - 30.2 °F 100% 29.78 in 10.0 mi Calm Calm - N/A   Clear
1:53 AM 33.8 °F - 30.2 °F 87% 29.78 in 10.0 mi Calm Calm - N/A   Clear
2:12 AM 33.8 °F - 30.2 °F 87% 29.78 in 10.0 mi Calm Calm - N/A   Clear
2:33 AM 33.8 °F - 30.2 °F 87% 29.78 in 10.0 mi Calm Calm - N/A   Clear
2:53 AM 33.8 °F 30.8 °F 30.2 °F 87% 29.77 in 10.0 mi SE 3.5 mph - N/A   Scattered Clouds
3:12 AM 33.8 °F - 30.2 °F 87% 29.77 in 10.0 mi Calm Calm - N/A   Scattered Clouds
3:33 AM 33.8 °F 30.8 °F 32.0 °F 93% 29.77 in 10.0 mi ESE 3.5 mph - N/A   Clear
3:53 AM 33.8 °F - 32.0 °F 93% 29.76 in 10.0 mi Calm Calm - N/A   Clear
4:12 AM 35.6 °F - 33.8 °F 93% 29.76 in 10.0 mi Calm Calm - N/A   Mostly Cloudy
4:33 AM 35.6 °F - 33.8 °F 93% 29.76 in 10.0 mi Calm Calm - N/A   Overcast
4:53 AM 35.6 °F - 33.8 °F 93% 29.76 in 10.0 mi Calm Calm - N/A   Overcast
5:12 AM 35.6 °F 32.8 °F 33.8 °F 93% 29.76 in 10.0 mi ESE 3.5 mph - N/A   Overcast
5:33 AM 35.6 °F - 33.8 °F 93% 29.76 in 10.0 mi Calm Calm - N/A   Overcast
5:52 AM 37.4 °F - 35.6 °F 93% 29.76 in 10.0 mi Calm Calm - N/A   Overcast
6:13 AM 35.6 °F - 33.8 °F 93% 29.77 in 10.0 mi Calm Calm - N/A   Overcast
6:33 AM 35.6 °F - 35.6 °F 100% 29.77 in 10.0 mi Calm Calm - N/A   Overcast
6:52 AM 37.4 °F - 35.6 °F 93% 29.76 in 10.0 mi Calm Calm - N/A Rain Light Rain
7:13 AM 37.4 °F - 35.6 °F 93% 29.76 in 10.0 mi Calm Calm - N/A Rain Light Rain
7:33 AM 37.4 °F - 35.6 °F 93% 29.77 in 10.0 mi Calm Calm - N/A Rain Light Rain
7:52 AM 37.4 °F - 37.4 °F 100% 29.77 in 10.0 mi Calm Calm - N/A Rain Light Rain
8:13 AM 37.4 °F - 37.4 °F 100% 29.77 in 4.0 mi Calm Calm - N/A Rain Light Rain
8:32 AM 37.4 °F - 37.4 °F 100% 29.77 in 5.0 mi Calm Calm - N/A Rain Light Rain
8:53 AM 39.2 °F - 37.4 °F 93% 29.77 in 7.0 mi Calm Calm - N/A Rain Light Rain
9:13 AM 39.2 °F - 37.4 °F 93% 29.77 in 7.0 mi Calm Calm - N/A Rain Light Rain
9:32 AM 39.2 °F - 39.2 °F 100% 29.78 in 7.0 mi Calm Calm - N/A Rain Light Rain
9:53 AM 41.0 °F - 39.2 °F 93% 29.77 in 7.0 mi Calm Calm - N/A Rain Rain
10:13 AM 41.0 °F - 39.2 °F 93% 29.77 in 7.0 mi Calm Calm - N/A Rain Light Rain
10:32 AM 42.8 °F - 39.2 °F 87% 29.77 in 10.0 mi Calm Calm - N/A   Light Drizzle
10:53 AM 42.8 °F - 41.0 °F 93% 29.77 in 7.0 mi Calm Calm - N/A Rain Light Rain
11:13 AM 44.6 °F - 41.0 °F 87% 29.77 in 10.0 mi Calm Calm - N/A Rain Light Rain
11:32 AM 44.6 °F - 41.0 °F 87% 29.77 in 10.0 mi Calm Calm - N/A Rain Light Rain
11:53 AM 44.6 °F - 41.0 °F 87% 29.77 in 10.0 mi Calm Calm - N/A Rain Light Rain
12:13 PM 44.6 °F - 42.8 °F 93% 29.77 in 10.0 mi Calm Calm - N/A   Light Drizzle
12:32 PM 44.6 °F - 42.8 °F 93% 29.78 in 10.0 mi Calm Calm - N/A Rain Light Rain
12:53 PM 44.6 °F - 42.8 °F 93% 29.78 in 7.0 mi Calm Calm - N/A Rain Light Rain
1:12 PM 44.6 °F - 42.8 °F 93% 29.78 in 7.0 mi Calm Calm - N/A Rain Light Rain
1:33 PM 44.6 °F - 42.8 °F 93% 29.77 in 7.0 mi Calm Calm - N/A Rain Light Rain
1:53 PM 44.6 °F - 42.8 °F 93% 29.77 in 7.0 mi Calm Calm - N/A Rain Light Rain
2:13 PM 44.6 °F - 42.8 °F 93% 29.77 in 7.0 mi Calm Calm - N/A Rain Light Rain
2:32 PM 44.6 °F - 42.8 °F 93% 29.77 in 7.0 mi Calm Calm - N/A Rain Light Rain
2:53 PM 44.6 °F 43.1 °F 42.8 °F 93% 29.77 in 10.0 mi North 3.5 mph - N/A Rain Light Rain
3:13 PM 44.6 °F - 41.0 °F 87% 29.77 in 10.0 mi Calm Calm - N/A Rain Light Rain
3:32 PM 44.6 °F - 42.8 °F 93% 29.77 in 7.0 mi Calm Calm - N/A Rain Light Rain
3:53 PM 44.6 °F - 42.8 °F 93% 29.77 in 7.0 mi Calm Calm - N/A Rain Light Rain
4:13 PM 44.6 °F 42.2 °F 42.8 °F 93% 29.77 in 10.0 mi NW 4.6 mph - N/A Rain Light Rain
4:32 PM 44.6 °F 42.2 °F 42.8 °F 93% 29.77 in 7.0 mi North 4.6 mph - N/A Rain Rain
4:53 PM 42.8 °F - 42.8 °F 100% 29.77 in 10.0 mi Calm Calm - N/A Rain Light Rain
5:13 PM 42.8 °F - 42.8 °F 100% 29.77 in 7.0 mi Calm Calm - N/A Rain Rain
5:33 PM 42.8 °F - 41.0 °F 93% 29.78 in 7.0 mi Calm Calm - N/A Rain Light Rain
5:53 PM 42.8 °F 41.1 °F 41.0 °F 93% 29.78 in 10.0 mi NNW 3.5 mph - N/A Rain Light Rain
6:12 PM 42.8 °F 41.1 °F 41.0 °F 93% 29.78 in 10.0 mi North 3.5 mph - N/A Rain Light Rain
6:33 PM 42.8 °F 41.1 °F 39.2 °F 87% 29.79 in 10.0 mi NNW 3.5 mph - N/A Rain Light Rain
6:53 PM 42.8 °F 40.1 °F 39.2 °F 87% 29.79 in 10.0 mi NNW 4.6 mph - N/A Rain Light Rain
7:12 PM 41.0 °F 38.0 °F 39.2 °F 93% 29.80 in 10.0 mi NNW 4.6 mph - N/A Rain Light Rain
7:33 PM 41.0 °F 37.1 °F 39.2 °F 93% 29.80 in 10.0 mi NNW 5.8 mph - N/A Rain Light Rain
7:53 PM 41.0 °F 39.0 °F 39.2 °F 93% 29.80 in 10.0 mi NNW 3.5 mph - N/A Rain Rain
8:12 PM 41.0 °F 38.0 °F 39.2 °F 93% 29.80 in 10.0 mi NNW 4.6 mph - N/A Rain Rain
8:33 PM 39.2 °F 33.0 °F 39.2 °F 100% 29.81 in 7.0 mi NNW 9.2 mph 16.1 mph N/A Rain Light Rain
8:52 PM 39.2 °F 34.2 °F 37.4 °F 93% 29.81 in 7.0 mi NNW 6.9 mph - N/A Rain Light Rain
9:13 PM 39.2 °F 35.0 °F 37.4 °F 93% 29.81 in 10.0 mi North 5.8 mph - N/A Rain Light Rain
9:33 PM 39.2 °F 35.9 °F 37.4 °F 93% 29.82 in 10.0 mi NNW 4.6 mph - N/A Rain Light Rain
9:52 PM 39.2 °F 35.0 °F 37.4 °F 93% 29.82 in 10.0 mi NNW 5.8 mph - N/A Rain Light Rain
10:13 PM 37.4 °F 32.8 °F 37.4 °F 100% 29.82 in 10.0 mi NW 5.8 mph - N/A Rain Light Rain
10:33 PM 39.2 °F 35.9 °F 37.4 °F 93% 29.82 in 10.0 mi NNW 4.6 mph - N/A   Drizzle
10:53 PM 37.4 °F 34.9 °F 37.4 °F 100% 29.82 in 10.0 mi NNW 3.5 mph - N/A   Drizzle
11:12 PM 37.4 °F - 37.4 °F 100% 29.82 in 10.0 mi Calm Calm - N/A Rain Light Rain
11:33 PM 37.4 °F - 37.4 °F 100% 29.82 in 10.0 mi Calm Calm - N/A   Drizzle
11:53 PM 37.4 °F - 37.4 °F 100% 29.82 in 10.0 mi Calm Calm - N/A   Mostly Cloudy